Location: Vibo Valentia
(38.6670°N, 16.1000°E)
Time: 02:52:13
(UTC+02:00)

STARLINK-1332 - Pass Details

Date: 30 May 2020
Orbit: 392 x 393 km, 53.0° (Epoch: 13 July)

Event Time Altitude Azimuth Distance (km) Brightness Sun altitude
Exits shadow 02:02:24 17° 16° (NNE) 1,038 5.8 -27.4°
Drops below altitude 10° 02:03:28 10° 29° (NNE) 1,392 6.6 -27.3°
Sets 02:05:41 0° 42° (NE) 2,247 7.8 -27.2°
